Tracking 29528 objects as of 12-Sep-2024
HD Live streaming from Space Station
objects crossing your sky now

STARLINK-5382

Track STARLINK-5382 now!
10-day predictions
STARLINK-5382 is classified as:


NORAD ID: 54820
Int'l Code: 2022-177A
Perigee: 565.5 km
Apogee: 567.0 km
Inclination: 43.0 °
Period: 95.8 minutes
Semi major axis: 6937 km
RCS: Unknown
Launch date: December 28, 2022
Source: United States (US)
Launch site: AIR FORCE EASTERN TEST RANGE (AFETR)
Your satellite tracking list
Your tracking list is empty




NASA's NSSDC Master Catalog

Two Line Element Set (TLE):
1 54820U 22177A   24255.57839715  .00003634  00000-0  28401-3 0  9995
2 54820  43.0011 210.1599 0001095 277.9795  82.0923 15.02525678 94129
Source of the keplerian elements: AFSPC